Regional Weather Roundup
Issued by NWS

Home | Current Version | Previous Version | Graphics & Text | Print | Product List | Glossary On
Versions: 1 2 3 4 5 6 7 8 9 10 11 12 13 14 15 16 17 18 19 20 21 22 23 24 25 26 27
000
ASUS45 KBOU 261707
RWRCO

WEATHER ROUNDUP FOR COLORADO
NATIONAL WEATHER SERVICE DENVER/BOULDER CO
1100 AM MDT THU MAY 26 2016

NOTE: "FAIR" INDICATES FEW OR NO CLOUDS BELOW 12000 FEET WITH NO
SIGNIFICANT WEATHER AND/OR OBSTRUCTIONS TO VISIBILITY.

COZ001>005-013-030-031-261800-
...NORTHWEST COLORADO...

CITY           SKY/WX    TMP DP  RH WIND       PRES   REMARKS
CRAIG          FAIR      58  37  45 VRB7      29.99F
HAYDEN         FAIR      55  32  41 W10       29.99F
MEEKER         FAIR      60  34  37 VRB6      29.96F
MOUNT WERNER   NOT AVBL
STEAMBOAT SPGS FAIR      56  30  36 W6        29.97F
WALDEN         FAIR      54  27  35 W6        30.04F
$$

COZ006>008-011-261800-
...WEST CENTRAL VALLEYS...

CITY           SKY/WX    TMP DP  RH WIND       PRES   REMARKS
GRAND JUNCTION FAIR      68  26  20 S8        29.88F
MONTROSE       FAIR      66  19  16 NE9       29.93F
EAGLE          NOT AVBL
RIFLE          FAIR      63  27  25 CALM      29.91F
DELTA          NOT AVBL
NUCLA          FAIR      64  19  17 SW8       29.97F
$$

COZ017>023-064>068-261800-
...SOUTHWEST COLORADO...

CITY           SKY/WX    TMP DP  RH WIND       PRES   REMARKS
DURANGO        FAIR      59  23  25 VRB3      29.99F
CORTEZ         FAIR      64  23  21 SW12G17   29.96F
PAGOSA SPRINGS CLOUDY    54  21  27 SW6       30.02F
TELLURIDE      CLOUDY    46  20  35 SW10G17   30.08S
WOLF CREEK PAS CLOUDY    34  21  60 SW9G18    30.19F WCI  26
$$

COZ009-010-012-014-032>034-037-058>063-261800-
...CENTRAL COLORADO...

CITY           SKY/WX    TMP DP  RH WIND       PRES   REMARKS
ASPEN          FAIR      54  26  34 NE8       29.98F
BUENA VISTA    FAIR      56  19  23 S15G22    30.01S
COPPER MTN     NOT AVBL
BERTHOUD PASS  PTSUNNY   30  19  64 E12G28    30.19F WCI  21
COTTONWOOD PAS CLOUDY    45  27  49 SW16G25   30.11R
GUNNISON       FAIR      55  19  24 E3        30.02F
KREMMLING      FAIR      55  27  33 CALM      30.00F
LEADVILLE      FAIR      49  10  20 MISG      30.06F
SALIDA         PTSUNNY   58  21  24 NE3       30.07F
SUNLIGHT       FAIR      45  18  33 CALM      30.16F
WILKERSON PASS PTSUNNY   39  23  52 CALM      30.17F
$$

COZ069>075-261800-
...SAN LUIS VALLEY/SANGRE DE CRISTO MOUNTAINS...

CITY           SKY/WX    TMP DP  RH WIND       PRES   REMARKS
ALAMOSA        FAIR      61  23  23 CALM      29.97F
LA VETA PASS   DRIZZLE   37  34  87 N3        30.11F
SAGUACHE       FAIR      61  19  20 S5        30.00F
$$

COZ035-036-038>040-261800-
...NORTHERN COLORADO FRONT RANGE...

CITY           SKY/WX    TMP DP  RH WIND       PRES   REMARKS
DENVER INTL AP PTSUNNY   63  44  50 E8        29.94F
DMNS CITY PARK   N/A     64  43  46 E13       29.93F
AURORA         PTSUNNY   63  44  49 VRB6      29.95F
FRONT RANGE AP NOT AVBL
ERIE MUNI ARPT CLOUDY    63  39  41 E3        29.94F
BOULDER MUN AP PTSUNNY   64  37  36 E5        29.94F
CENTENNIAL     FAIR      61  42  49 S6        29.95F
BROOMFIELD     PTSUNNY   63  39  42 E5        29.96F
FORT COLLINS   FAIR      64  39  39 E6        29.94F
LONGMONT       FAIR      69  39  33 E10       29.95F
$$

COZ041-046-047-076>085-087-088-261800-
...PIKES PEAK/PALMER DIVIDE AND SOUTHERN FOOTHILLS...

CITY           SKY/WX    TMP DP  RH WIND       PRES   REMARKS
COLO. SPRINGS  PTSUNNY   64  41  42 VRB3      29.97F
A. F. ACADEMY  CLOUDY    59  41  51 VRB1      29.97F
SCHRIEVER AFB  NOT AVBL
ELLICOTT       FAIR     N/A N/A N/A NE10G17   29.94F
FALCON         FAIR      62  40  45 SE5       30.00F
FORT CARSON    FAIR      64  45  51 NE10      29.93F
LIMON          FAIR      66  46  48 NE9G16    29.93F
MONUMENT HILL  FAIR      55  41  58 CALM      30.01F
TRINIDAD       FAIR      65  45  48 NE7       29.93F
$$

COZ042>045-048>051-090-091-261800-
...NORTHEAST COLORADO...

CITY           SKY/WX    TMP DP  RH WIND       PRES   REMARKS
GREELEY ARPT   PTSUNNY   63  41  45 SE6       29.95F
AKRON          FAIR      68  41  37 E16       29.93F
BURLINGTON     FAIR      71  48  43 NE24G30   29.87F
WRAY           NOT AVBL
STERLING       CLOUDY    64  48  55 E6        29.91F THUNDER
HOLYOKE        NOT AVBL
FORT MORGAN    PTSUNNY   67  38  34 NE9       29.94F THUNDER
$$

COZ086-089-092>099-261800-
...SOUTHEAST COLORADO...

CITY           SKY/WX    TMP DP  RH WIND       PRES   REMARKS
PUEBLO         FAIR      70  48  45 VRB3      29.88F
LA JUNTA       FAIR      71  50  47 N8G16     29.85F
LAMAR          FAIR      72  55  55 N9        29.80F
SPRINGFIELD      N/A     71  51  49 N10G18    29.83F
$$




USA.gov is the U.S. government's official web portal to all federal, state and local government web resources and services.